Home > Time Zones > World Clock > Weather > Japan > Kobe > Past weeks

Flag for Japan Weather past 2 weeks in Kobe, Japan

Now
86 °F

Partly sunny.


Feels Like: 92 °F
Forecast: 75 / 87 °F
Wind: 9 mph from Southwest

Location: Osaka International Airport

Current Time: Jul 22, 2014 at 5:28:58 PM

Latest Report: Jul 22, 2014 at 5:00 PM


Visibility: N/A

Pressure: 29.74 "Hg

Humidity: 62%

Dew point: 72 °F

Location of KobeLocation

Historic Weather in Kobe — Graph

°F

Kobe temperature yesterday

Maximum temperature yesterday: 90 °F (at 2:00 PM)
Minimum temperature yesterday: 73 °F (at 5:00 AM)
Average temperature yesterday: 83 °F

Past Weeks' High & Low Weather Summary

 TemperatureHumidityPressure
High93 °F (Jul 17, 2:00 PM)100% (Jul 8, 5:00 AM)29.92 "Hg (Jul 8, 5:00 AM)
Low73 °F (Jul 8, 5:00 AM)43% (Jul 12, 1:00 PM)29.18 "Hg (Jul 10, 5:00 PM)
Average83 °F71%29.75 "Hg
* Reported Jul 7 4:00 PM — Jul 22 4:00 PM, Kobe, Weather by CustomWeather, © 2014

Note: Actual official high and low records may vary slightly from our data, if they occured in-between our weather recording intervals... More about our weather records

Advertising

Kobe weather history for previous 24 hours

 ConditionsComfort  
Time TempWeatherWind HumidityBarometerVisibility
4:00 PM
Jul 22
88 °FPartly sunny.12 mph59%29.74 "HgN/A
3:00 PM90 °FPartly sunny.12 mph55%29.77 "HgN/A
2:00 PM91 °FPartly sunny.10 mph52%29.77 "HgN/A
1:00 PM90 °FPartly sunny.8 mph55%29.77 "HgN/A
12:00 PM90 °FPartly sunny.9 mph55%29.80 "HgN/A
11:00 AM88 °FPartly sunny.7 mph55%29.80 "HgN/A
10:00 AM86 °FScattered clouds.7 mph62%29.83 "HgN/A
9:00 AM84 °FScattered clouds.7 mph66%29.83 "HgN/A
8:00 AM82 °FPartly sunny.5 mph74%29.83 "Hg6 mi
7:00 AM81 °FBroken clouds.3 mph84%29.83 "Hg6 mi
6:00 AM81 °FSprinkles. Scattered clouds.5 mph79%29.83 "Hg5 mi
5:00 AM81 °FScattered clouds.3 mph74%29.83 "Hg6 mi
8:00 PM
Jul 21
81 °FPassing clouds.7 mph79%29.83 "HgN/A
7:00 PM82 °FPassing clouds.9 mph70%29.80 "HgN/A
6:00 PM84 °FPassing clouds.13 mph66%29.77 "HgN/A
5:00 PM84 °FPassing clouds.14 mph66%29.77 "HgN/A
Weather by CustomWeather, © 2014

See weather overviewHow to use our weather pages